Theta_e
326 326 325 325 327 324 328 333 329 332 331 328 327 329 331 336 335 326 336 337 337 334 336 337 337 337 337 335 334 333 331 331 330 331 332 334 333 331 330 329 327 329 327 328 326 328 329 328 327
326 325 324 320 327 331 328 326 332 331 330 327 329 331 332 338 337 336 336 338 335 333 335 337 337 337 337 334 332 331 331 330 330 329 329 332 331 331 330 327 329 328 328 327 327 328 328 327 326
326 324 321 324 326 330 329 326 329 331 329 331 331 330 334 337 334 336 337 337 335 334 335 337 337 337 335 331 329 329 328 328 329 327 329 328 328 330 330 328 327 327 327 327 327 327 326 325 326
324 321 319 326 331 329 326 325 328 331 329 329 330 336 333 335 335 337 338 338 336 334 335 336 337 335 333 331 329 328 329 329 328 328 328 330 329 327 329 327 327 327 326 327 327 325 323 324 325
322 318 325 328 328 326 324 324 327 330 329 329 329 335 336 337 336 338 338 338 336 335 335 335 335 334 332 332 330 328 330 330 329 328 328 329 328 326 327 326 326 327 326 326 326 322 317 319 324
320 318 326 329 327 323 323 320 323 325 326 329 329 336 335 336 337 337 338 338 337 335 335 335 334 333 332 332 331 329 328 328 328 327 327 328 328 326 327 325 326 325 326 326 325 318 317 316 323
321 320 326 326 326 323 322 316 323 323 329 330 325 334 335 336 337 337 339 338 338 338 335 335 334 332 333 333 331 330 331 328 326 327 325 328 328 326 326 325 325 325 326 325 322 317 316 316 318
317 318 325 324 324 324 319 319 320 324 326 323 325 330 332 334 337 335 337 338 338 337 336 334 333 332 333 333 332 331 330 329 326 326 326 323 327 327 325 325 326 325 325 325 323 318 317 316 316
316 321 322 324 324 322 319 318 318 318 321 321 329 329 331 333 336 335 336 338 338 337 336 335 333 332 332 332 332 332 331 330 327 326 325 323 324 326 325 324 325 325 325 325 325 321 317 317 316
320 321 322 320 322 321 320 321 320 318 317 321 326 334 335 336 336 336 335 336 338 337 336 335 333 332 332 332 331 332 332 331 329 328 326 322 322 324 325 324 323 324 323 324 323 320 318 318 317
322 323 321 323 322 322 322 321 321 321 320 320 322 326 335 335 336 335 335 335 336 337 336 335 334 333 332 332 332 331 332 331 330 329 327 324 322 322 323 324 323 323 323 323 323 320 318 317 317
326 323 323 324 323 323 324 322 323 322 320 317 316 316 332 332 332 334 334 335 335 335 336 335 334 334 333 332 332 331 331 331 331 330 329 327 324 322 321 322 323 323 323 323 323 321 318 318 317
326 325 323 322 321 321 321 323 323 322 319 318 317 318 328 331 332 334 335 335 336 335 335 335 335 334 334 333 332 331 331 330 329 330 330 328 326 325 322 322 321 322 322 323 323 322 319 317 317
323 323 323 321 321 321 322 322 320 319 317 317 316 316 314 327 331 331 332 333 334 334 335 335 335 334 334 334 333 331 332 331 330 329 329 330 327 327 325 323 324 324 322 323 323 322 319 318 317
323 324 322 322 322 322 320 322 320 317 316 316 315 313 311 312 320 331 332 332 333 332 333 334 334 333 333 333 333 332 331 332 331 329 328 329 329 327 326 325 325 324 324 324 323 321 319 318 319
325 322 326 322 322 321 322 326 320 317 317 317 314 312 311 311 313 316 321 327 330 332 332 332 332 334 333 331 332 331 331 330 330 329 328 327 329 329 328 325 326 325 324 324 323 322 320 318 318
324 324 324 323 321 321 321 323 320 317 317 316 314 313 311 311 313 315 317 318 319 324 331 332 332 332 333 333 330 330 330 329 329 329 329 329 330 330 330 328 327 327 326 324 323 321 322 321 321
323 324 323 323 321 320 320 319 316 315 316 315 313 311 311 311 312 317 318 316 317 320 325 330 332 332 332 332 333 330 329 329 329 329 329 329 329 330 330 330 328 327 327 326 324 322 322 322 322
321 320 320 319 319 318 318 319 318 315 315 314 313 313 313 313 314 316 317 317 316 317 322 327 332 332 333 332 331 331 329 328 328 329 329 329 328 328 329 330 329 328 328 327 326 324 322 321 321
322 324 321 321 319 319 318 319 316 314 315 314 314 314 314 315 313 313 314 314 314 315 319 325 330 331 332 333 331 331 330 330 330 329 330 330 330 329 328 328 328 328 328 327 326 325 321 320 319
321 322 322 321 319 316 317 319 316 315 313 313 313 313 313 313 313 311 311 311 313 312 315 319 326 329 331 331 331 330 331 331 331 331 331 331 329 330 329 329 328 328 327 327 326 325 323 321 319
323 318 320 320 321 321 316 320 316 315 315 313 311 311 312 312 309 307 308 310 309 310 316 319 323 327 329 330 331 331 331 331 331 331 331 331 331 330 329 329 329 327 326 326 326 326 324 321 320
320 316 317 318 319 318 318 321 316 314 313 313 311 310 309 307 306 309 307 307 307 308 308 308 308 309 311 321 328 330 330 330 331 331 331 331 331 331 331 330 328 328 326 326 325 324 323 322 321
316 319 318 317 318 323 317 317 317 313 311 311 310 309 308 308 305 304 305 305 304 306 307 307 308 308 308 307 307 309 315 321 327 330 330 331 331 331 331 331 331 330 328 327 326 326 324 323 322
318 319 322 322 323 320 314 316 316 313 311 310 310 310 309 303 302 302 302 302 301 301 302 303 304 304 305 307 307 307 307 307 308 310 318 325 328 330 330 330 330 329 329 328 327 325 324 324 323
318 318 315 316 317 315 313 317 315 312 311 309 309 308 304 302 301 301 301 300 300 299 298 299 300 300 299 301 303 304 306 306 307 308 309 312 315 320 327 329 330 329 329 329 328 326 325 325 324
315 320 315 314 309 318 313 314 311 310 309 308 307 305 302 301 300 299 299 298 298 297 296 296 296 296 296 296 298 300 302 304 304 306 308 311 313 317 318 323 328 329 329 329 328 327 326 325 325
316 314 320 319 320 320 318 314 315 312 311 309 306 303 301 300 298 297 296 295 295 295 294 293 293 292 293 293 295 296 298 300 301 302 304 305 309 308 311 318 321 326 328 328 328 327 327 326 325
318 319 317 315 319 320 314 313 307 309 310 306 303 302 300 299 297 295 294 293 292 292 292 291 291 290 290 290 292 293 293 296 297 297 299 300 302 304 305 308 317 321 324 326 327 327 327 327 326
314 315 316 318 315 316 317 315 311 310 305 305 303 301 298 296 295 293 292 291 290 289 289 289 289 287 287 288 290 290 291 293 292 291 293 295 297 299 301 304 309 317 321 323 325 326 326 326 326
Wind_Speed
31 25 10 5 4 5 2 2 2 0 1 0 2 0 4 2 1 3 1 16 12 21 19 16 14 13 13 12 10 11 11 11 10 9 10 11 13 12 12 12 11 11 11 10 11 11 11 11 11
27 16 5 2 5 4 4 3 3 2 2 4 4 2 3 0 1 1 8 15 16 20 20 17 15 14 13 10 10 9 11 9 10 10 10 10 9 10 11 10 10 11 10 9 8 9 8 9 9
15 10 4 4 3 3 4 3 3 2 1 1 3 3 2 1 1 6 4 17 19 20 20 19 15 16 12 10 9 9 9 12 11 11 11 9 8 8 10 10 9 9 8 8 7 7 7 8 7
11 8 4 5 2 1 2 3 2 1 2 1 3 2 2 3 3 7 11 18 17 18 19 18 18 16 14 11 10 10 9 11 12 12 11 9 9 6 10 9 9 8 7 7 6 6 6 7 7
7 3 4 4 4 4 4 2 4 1 3 1 2 1 1 6 2 9 21 18 16 17 18 18 18 16 15 15 11 11 9 10 11 12 13 10 10 8 10 8 9 8 7 6 5 5 5 6 6
4 3 5 1 5 6 3 3 1 2 3 1 3 2 2 4 6 13 21 18 16 16 17 17 17 16 16 16 14 12 11 11 12 11 14 13 10 9 11 10 10 8 8 6 5 5 5 5 6
5 3 4 2 2 4 3 7 3 2 2 3 3 1 2 3 6 15 19 18 16 15 15 17 17 17 17 17 15 13 12 12 13 13 12 18 13 11 11 10 10 9 9 8 7 5 5 5 6
4 3 2 1 1 1 5 5 2 2 1 4 4 1 2 6 11 13 16 18 18 18 17 17 18 18 19 18 17 16 15 13 13 13 12 12 16 14 13 14 11 10 9 8 8 6 6 5 5
3 4 1 2 2 4 4 5 4 4 3 4 3 2 4 5 15 14 13 17 18 20 21 19 19 19 19 19 19 18 17 15 14 14 14 13 17 16 14 16 16 12 11 10 11 9 7 7 6
4 3 7 3 1 1 5 3 3 6 7 3 3 1 1 15 17 18 14 18 22 23 23 22 21 20 20 21 20 21 20 19 18 17 16 16 16 18 17 16 16 15 13 12 15 12 10 9 9
2 4 4 2 2 2 2 5 2 2 3 2 4 4 1 9 14 17 23 22 27 27 25 25 24 22 21 23 23 23 23 23 22 21 19 18 18 18 19 19 18 19 17 15 15 14 13 12 12
1 4 3 2 1 1 2 1 2 3 6 4 6 4 4 8 13 21 23 29 25 26 28 26 26 25 22 23 25 25 25 26 26 25 23 22 21 20 21 22 21 22 22 21 19 18 16 15 14
2 3 3 5 6 6 3 5 5 8 9 9 7 6 7 10 18 23 25 25 28 27 28 28 27 29 26 26 26 27 27 28 28 28 27 26 25 23 22 23 23 23 23 24 23 21 20 19 18
2 2 6 5 6 4 4 4 4 5 6 8 7 10 9 10 20 17 22 28 29 31 33 29 31 31 29 30 29 29 29 29 28 28 30 30 28 26 25 25 25 25 25 24 24 24 23 23 21
2 3 6 4 5 4 1 4 7 9 6 9 9 8 9 10 16 24 30 29 31 32 32 34 32 31 33 33 33 31 32 32 31 29 30 32 32 30 28 27 27 28 27 26 25 25 25 25 25
1 3 1 4 3 6 4 11 8 10 7 11 9 9 8 10 13 22 24 29 32 33 33 32 34 36 33 34 34 32 32 32 33 31 29 31 34 32 32 31 30 28 28 28 28 27 27 28 28
3 4 3 6 3 4 6 3 5 6 4 10 9 8 9 9 12 15 21 26 28 31 33 32 31 35 37 34 36 35 34 33 34 33 32 32 32 35 34 36 36 32 31 31 30 30 30 30 30
10 5 3 4 4 1 8 14 8 10 5 8 9 9 9 9 12 29 29 26 25 26 28 33 32 32 34 36 35 37 35 35 35 35 36 33 33 34 36 38 39 36 34 34 33 32 32 33 33
3 3 2 2 5 4 9 15 12 8 5 9 9 9 10 12 19 29 33 31 29 25 26 30 32 34 32 32 33 33 38 37 36 37 37 36 35 36 37 39 40 38 38 38 36 34 34 35 33
9 12 16 4 8 5 7 20 10 8 7 8 11 11 13 15 14 19 28 28 25 27 25 27 30 33 33 35 33 26 21 26 34 34 38 39 38 41 41 40 40 41 39 39 39 36 29 32 27
5 6 4 9 5 6 6 21 11 7 6 9 8 11 12 15 16 12 14 22 18 16 18 20 25 29 28 30 28 23 24 24 20 26 32 37 37 42 42 41 41 40 41 39 40 39 37 27 25
14 7 6 4 2 9 3 11 14 10 17 11 9 11 14 15 8 6 9 6 13 18 13 6 7 12 15 17 22 25 24 22 25 28 31 33 33 33 34 39 40 40 37 37 38 39 39 32 27
7 6 8 6 5 5 5 5 9 1 9 14 10 12 12 8 7 2 8 16 20 22 24 23 23 20 12 5 9 16 23 24 26 27 28 32 33 33 33 32 37 39 38 40 36 33 36 35 33
3 2 3 3 3 8 6 7 11 4 6 3 5 9 6 5 8 9 15 19 26 27 28 27 25 24 21 19 16 13 10 16 20 21 24 28 29 31 33 34 37 39 40 40 40 41 36 35 35
4 4 2 3 5 8 3 7 15 12 5 8 12 3 5 7 9 9 10 18 25 30 30 28 26 27 24 21 20 18 17 17 17 17 18 22 25 25 27 32 35 39 40 40 40 38 36 35 35
10 9 5 4 4 4 2 6 6 8 8 8 7 9 9 11 9 10 13 18 22 26 30 30 30 30 29 27 24 20 18 19 19 21 20 20 23 23 26 31 36 37 38 39 39 40 37 35 36
5 12 13 2 1 5 5 7 9 7 7 5 4 9 11 9 8 9 15 19 21 25 27 28 28 28 30 29 28 26 24 22 21 22 22 22 23 23 23 27 32 35 38 39 40 38 35 36 37
6 7 4 6 6 7 2 6 9 5 6 3 8 11 10 8 10 10 16 20 22 24 25 28 27 26 27 30 29 28 27 24 23 23 23 23 25 26 26 24 26 31 34 36 38 36 34 35 36
5 6 3 2 3 2 3 6 6 5 5 9 11 10 10 10 10 10 15 18 21 24 26 27 30 31 33 32 31 31 32 27 27 28 28 27 27 27 27 27 26 26 30 31 33 34 34 34 36
16 13 16 6 5 4 2 12 2 3 6 18 14 11 9 8 9 9 13 16 21 23 23 25 28 30 32 34 30 30 31 26 30 32 32 30 31 31 29 27 26 26 25 27 29 32 32 33 33
Wind_Direction
342 341 337 28 54 65 17 21 274 266 22 290 322 45 97 59 145 220 193 165 164 166 165 168 168 168 163 159 157 157 155 152 146 149 143 136 144 133 136 134 127 122 115 113 105 107 106 116 107
342 349 20 71 81 68 287 247 216 225 198 112 83 34 22 104 320 73 130 180 172 168 165 170 169 168 166 167 172 177 172 164 149 152 153 143 137 140 137 136 132 125 125 115 111 108 115 119 110
344 4 68 78 101 142 180 220 229 309 318 123 109 49 174 205 224 183 268 179 172 171 170 168 175 170 172 168 170 169 162 153 152 155 148 161 163 155 147 140 142 143 132 123 115 111 118 122 106
351 14 36 71 39 44 223 207 213 290 292 287 96 78 360 320 191 183 171 170 177 176 174 174 179 177 171 171 164 160 161 162 158 159 167 160 162 161 156 149 157 142 141 130 122 112 125 134 121
26 52 50 61 333 323 4 5 131 246 309 320 42 214 337 328 232 178 168 171 180 180 181 180 181 183 177 169 172 168 168 169 174 167 167 170 181 176 174 175 162 165 152 152 136 129 135 147 140
34 82 56 73 319 319 328 1 287 27 326 13 57 110 262 281 173 172 175 177 181 181 187 186 187 187 185 179 179 175 176 180 182 186 178 173 187 192 186 192 182 183 178 174 167 155 142 149 157
94 69 166 169 283 343 307 334 38 331 342 347 133 142 304 260 185 171 180 183 185 188 192 195 195 193 192 191 186 184 185 192 192 198 200 182 180 193 204 192 195 184 201 195 196 183 168 165 175
96 89 120 224 197 222 327 334 349 32 316 307 140 206 285 225 184 174 185 193 192 195 199 202 202 202 199 199 198 194 195 198 203 204 214 204 195 193 203 200 199 200 207 223 222 213 201 193 192
105 54 209 223 109 271 346 26 332 306 350 4 31 124 284 202 176 169 178 197 202 201 201 205 210 211 209 206 206 205 203 207 205 208 214 217 206 209 209 210 211 212 215 219 235 237 224 215 212
85 124 218 186 238 305 320 35 308 8 349 338 337 12 43 167 179 191 196 202 210 212 209 206 211 216 218 215 212 212 212 211 213 212 214 216 217 217 217 217 217 217 222 231 239 241 239 232 224
155 197 205 251 190 161 274 325 356 7 327 252 298 322 217 184 194 208 218 215 217 217 218 216 212 215 221 224 219 217 218 220 218 219 219 220 221 222 224 225 220 223 224 229 240 241 240 240 236
243 245 271 271 250 327 261 248 298 246 230 260 277 300 205 224 221 220 225 226 222 222 226 226 223 218 220 225 230 226 224 225 225 223 223 223 224 227 226 227 228 232 230 231 236 242 243 244 242
212 271 292 265 241 248 275 241 231 247 259 277 286 276 231 229 235 237 237 236 235 237 233 231 230 226 227 225 231 233 231 230 231 230 228 227 228 232 234 233 230 232 233 238 241 243 242 243 244
300 276 284 307 279 263 239 246 150 272 257 284 303 287 266 236 236 252 249 245 240 241 241 236 231 232 231 230 229 234 237 238 237 236 234 232 233 235 238 236 236 236 236 240 245 248 247 246 247
273 315 322 259 270 270 271 280 236 253 289 287 283 289 304 269 259 241 254 252 250 246 244 239 236 235 235 234 233 233 239 243 243 245 244 238 236 238 239 242 245 243 242 244 247 248 247 248 246
28 92 246 277 230 264 179 262 256 253 256 277 291 294 309 299 269 257 257 261 260 254 249 246 243 240 239 237 237 239 238 240 246 248 250 245 242 244 243 245 249 252 248 247 248 247 246 247 247
244 238 217 311 246 279 204 275 269 330 259 269 281 290 300 296 306 279 267 265 273 265 254 251 243 241 241 241 241 241 243 244 247 250 251 250 248 248 248 249 252 254 251 251 251 249 247 249 251
239 232 177 220 304 283 281 276 272 285 259 262 282 283 281 292 281 295 294 291 284 277 265 252 247 243 242 242 241 243 243 244 247 252 255 254 254 253 252 252 254 255 255 253 251 251 252 252 255
255 231 284 338 274 307 276 285 290 282 282 270 275 277 278 273 271 281 288 288 288 277 264 255 245 245 241 238 237 235 237 239 243 248 255 256 257 255 255 254 254 254 254 255 255 253 252 252 252
241 259 259 256 260 280 269 280 281 269 251 235 250 258 262 274 276 280 283 291 295 279 270 262 254 252 246 242 241 232 244 242 246 248 254 257 257 262 255 254 251 254 255 254 253 251 245 249 244
204 219 224 244 292 271 284 280 264 255 245 247 254 252 260 258 267 284 303 306 301 290 270 268 265 263 256 253 245 241 241 247 243 245 253 256 259 257 261 261 254 249 251 248 252 249 244 240 243
244 196 212 220 266 272 135 291 276 277 276 260 250 253 258 261 256 272 305 50 43 44 45 5 299 276 268 260 248 250 239 239 246 251 256 262 263 266 268 261 263 252 245 245 245 250 247 236 239
242 175 199 201 217 320 205 253 283 57 285 273 248 255 256 276 263 224 105 73 59 57 56 60 61 56 39 328 271 258 254 256 264 261 261 265 266 268 269 263 260 259 251 251 245 242 240 235 235
157 158 49 44 156 246 174 194 270 266 233 269 282 289 317 61 74 71 68 61 55 57 56 55 55 51 45 43 36 19 333 300 288 281 272 267 265 262 262 262 263 266 255 252 251 250 241 238 234
152 154 238 215 219 255 208 210 250 274 261 246 270 304 60 62 61 55 44 45 46 43 44 46 45 38 33 33 30 23 15 6 351 331 306 294 284 271 257 263 258 253 253 255 253 247 243 236 234
198 192 207 215 207 256 53 235 253 240 277 285 289 144 86 63 54 53 46 50 47 43 41 40 38 34 29 24 20 14 9 2 354 350 344 327 304 291 283 273 262 256 261 259 261 248 244 241 237
186 210 220 298 115 276 235 283 290 269 309 3 34 90 88 78 61 54 47 46 43 40 38 36 34 28 24 19 16 15 13 5 355 348 347 341 336 327 309 290 276 268 258 258 255 248 243 240 239
182 157 166 192 234 235 229 280 241 292 323 27 77 92 79 61 55 47 40 37 35 32 30 30 28 21 18 17 15 9 7 5 2 353 346 342 335 335 330 318 296 282 272 261 254 250 247 242 240
181 206 169 139 196 214 229 248 215 234 287 119 96 83 78 64 49 39 34 32 34 29 23 20 17 11 9 7 9 7 3 358 357 358 352 344 334 330 329 325 317 299 283 271 260 256 253 246 244
216 223 208 215 204 233 228 264 7 133 183 127 119 107 92 76 67 51 35 26 28 22 14 15 10 5 1 1 358 0 358 353 351 352 350 345 339 333 325 324 319 319 305 288 272 264 260 254 248